Starlink 11101

operational
NORAD ID: 59715 Int'l Des: 2024-088 Owner: SPXS Country: US Constellation: starlink
LEOCIRCULAR

About Starlink 11101

Description loading...

Live Position

Loading 3D Globe...

Upcoming Passes

Altitude History

Altitude vs Time

uPlot chart will show altitude changes over time

Two-Line Element Set

1 59715U 24088H 25351.36640264 -.00001001 00000-0 -34092-5 0 9993
2 59715 53.1594 12.0068 0000932 91.6796 268.4328 15.69705351 93349
Epoch: Dec 17, 2025 • Age: 16 hours

Current Status

Altitude 361.4 km
Velocity 7.69 km/s
Sub-Earth Point -4.59°S, 92.32°E
Launch Date May 10, 2024
Age 1.6 years
Type internet

Technical Details

Classification Payload
Mass 960.00 kg
Dry Mass 910.00 kg
Total Mass 960.00 kg
Length 0.30 m
Diameter 4.10 m
Span 29.00 m
Shape Box + pan
Manufacturer SPXS
Bus Type Starlink V2MD
Phase Status In Orbit
Owner/State SPXS/US

Large Constellations

Loading constellations...